Year,Month,Day,Hour,Minute,Value (Times are PST for temperature in C)
2016,08,25,00,00,18.80
2016,08,25,00,01,18.80
2016,08,25,00,02,18.80
2016,08,25,00,03,18.70
2016,08,25,00,04,18.70
2016,08,25,00,05,18.60
2016,08,25,00,06,18.60
2016,08,25,00,07,18.50
2016,08,25,00,08,18.40
2016,08,25,00,09,18.40
2016,08,25,00,10,18.30
2016,08,25,00,11,18.30
2016,08,25,00,12,18.20
2016,08,25,00,13,18.20
2016,08,25,00,14,18.10
2016,08,25,00,15,18.10
2016,08,25,00,16,18.00
2016,08,25,00,17,17.90
2016,08,25,00,18,17.90
2016,08,25,00,19,17.80
2016,08,25,00,20,17.70
2016,08,25,00,21,17.70
2016,08,25,00,22,17.60
2016,08,25,00,23,17.60
2016,08,25,00,24,17.50
2016,08,25,00,25,17.50
2016,08,25,00,26,17.40
2016,08,25,00,27,17.40
2016,08,25,00,28,17.40
2016,08,25,00,29,17.30
2016,08,25,00,30,17.30
2016,08,25,00,31,17.30
2016,08,25,00,32,17.20
2016,08,25,00,33,17.20
2016,08,25,00,34,17.20
2016,08,25,00,35,17.10
2016,08,25,00,36,17.10
2016,08,25,00,37,17.00
2016,08,25,00,38,17.00
2016,08,25,00,39,16.90
2016,08,25,00,40,16.90
2016,08,25,00,41,16.90
2016,08,25,00,42,16.80
2016,08,25,00,43,16.80
2016,08,25,00,44,16.80
2016,08,25,00,45,16.80
2016,08,25,00,46,16.80
2016,08,25,00,47,16.90
2016,08,25,00,48,16.90
2016,08,25,00,49,16.90
2016,08,25,00,50,16.90
2016,08,25,00,51,16.90
2016,08,25,00,52,17.00
2016,08,25,00,53,17.00
2016,08,25,00,54,17.00
2016,08,25,00,55,17.00
2016,08,25,00,56,17.10
2016,08,25,00,57,17.10
2016,08,25,00,58,17.00
2016,08,25,00,59,17.00
2016,08,25,01,00,17.00
2016,08,25,01,01,17.00
2016,08,25,01,02,16.90
2016,08,25,01,03,16.90
2016,08,25,01,04,16.90
2016,08,25,01,05,16.90
2016,08,25,01,06,16.90
2016,08,25,01,07,16.90
2016,08,25,01,08,16.90
2016,08,25,01,09,16.80
2016,08,25,01,10,16.80
2016,08,25,01,11,16.80
2016,08,25,01,12,16.80
2016,08,25,01,13,16.70
2016,08,25,01,14,16.70
2016,08,25,01,15,16.70
2016,08,25,01,16,16.60
2016,08,25,01,17,16.60
2016,08,25,01,18,16.60
2016,08,25,01,19,16.50
2016,08,25,01,20,16.50
2016,08,25,01,21,16.40
2016,08,25,01,22,16.40
2016,08,25,01,23,16.40
2016,08,25,01,24,16.30
2016,08,25,01,25,16.30
2016,08,25,01,26,16.30
2016,08,25,01,27,16.20
2016,08,25,01,28,16.20
2016,08,25,01,29,16.20
2016,08,25,01,30,16.20
2016,08,25,01,31,16.20
2016,08,25,01,32,16.20
2016,08,25,01,33,16.20
2016,08,25,01,34,16.20
2016,08,25,01,35,16.20
2016,08,25,01,36,16.20
2016,08,25,01,37,16.20
2016,08,25,01,38,16.20
2016,08,25,01,39,16.20
2016,08,25,01,40,16.10
2016,08,25,01,41,16.10
2016,08,25,01,42,16.00
2016,08,25,01,43,16.00
2016,08,25,01,44,16.00
2016,08,25,01,45,15.90
2016,08,25,01,46,15.90
2016,08,25,01,47,15.80
2016,08,25,01,48,15.80
2016,08,25,01,49,15.80
2016,08,25,01,50,15.80
2016,08,25,01,51,15.80
2016,08,25,01,52,15.70
2016,08,25,01,53,15.70
2016,08,25,01,54,15.70
2016,08,25,01,55,15.70
2016,08,25,01,56,15.60
2016,08,25,01,57,15.60
2016,08,25,01,58,15.60
2016,08,25,01,59,15.60
2016,08,25,02,00,15.60
2016,08,25,02,01,15.60
2016,08,25,02,02,15.60
2016,08,25,02,03,15.50
2016,08,25,02,04,15.50
2016,08,25,02,05,15.50
2016,08,25,02,06,15.50
2016,08,25,02,07,15.50
2016,08,25,02,08,15.50
2016,08,25,02,09,15.50
2016,08,25,02,10,15.40
2016,08,25,02,11,15.40
2016,08,25,02,12,15.40
2016,08,25,02,13,15.40
2016,08,25,02,14,15.40
2016,08,25,02,15,15.40
2016,08,25,02,16,15.40
2016,08,25,02,17,15.40
2016,08,25,02,18,15.30
2016,08,25,02,19,15.30
2016,08,25,02,20,15.30
2016,08,25,02,21,15.30
2016,08,25,02,22,15.30
2016,08,25,02,23,15.20
2016,08,25,02,24,15.20
2016,08,25,02,25,15.20
2016,08,25,02,26,15.20
2016,08,25,02,27,15.20
2016,08,25,02,28,15.20
2016,08,25,02,29,15.20
2016,08,25,02,30,15.20
2016,08,25,02,31,15.20
2016,08,25,02,32,15.10
2016,08,25,02,33,15.10
2016,08,25,02,34,15.10
2016,08,25,02,35,15.10
2016,08,25,02,36,15.10
2016,08,25,02,37,15.20
2016,08,25,02,38,15.10
2016,08,25,02,39,15.10
2016,08,25,02,40,15.10
2016,08,25,02,41,15.10
2016,08,25,02,42,15.10
2016,08,25,02,43,15.10
2016,08,25,02,44,15.10
2016,08,25,02,45,15.10
2016,08,25,02,46,15.10
2016,08,25,02,47,15.00
2016,08,25,02,48,15.00
2016,08,25,02,49,15.00
2016,08,25,02,50,15.00
2016,08,25,02,51,15.00
2016,08,25,02,52,15.00
2016,08,25,02,53,15.00
2016,08,25,02,54,14.90
2016,08,25,02,55,14.90
2016,08,25,02,56,14.90
2016,08,25,02,57,14.80
2016,08,25,02,58,14.80
2016,08,25,02,59,14.80
2016,08,25,03,00,14.80
2016,08,25,03,01,14.80
2016,08,25,03,02,14.80
2016,08,25,03,03,14.80
2016,08,25,03,04,14.80
2016,08,25,03,05,14.90
2016,08,25,03,06,14.90
2016,08,25,03,07,14.90
2016,08,25,03,08,14.90
2016,08,25,03,09,14.90
2016,08,25,03,10,14.90
2016,08,25,03,11,14.90
2016,08,25,03,12,14.90
2016,08,25,03,13,14.90
2016,08,25,03,14,14.90
2016,08,25,03,15,14.90
2016,08,25,03,16,14.90
2016,08,25,03,17,14.90
2016,08,25,03,18,14.80
2016,08,25,03,19,14.80
2016,08,25,03,20,14.80
2016,08,25,03,21,14.80
2016,08,25,03,22,14.80
2016,08,25,03,23,14.80
2016,08,25,03,24,14.80
2016,08,25,03,25,14.80
2016,08,25,03,26,14.70
2016,08,25,03,27,14.70
2016,08,25,03,28,14.70
2016,08,25,03,29,14.70
2016,08,25,03,30,14.70
2016,08,25,03,31,14.70
2016,08,25,03,32,14.70
2016,08,25,03,33,14.80
2016,08,25,03,34,14.80
2016,08,25,03,35,14.70
2016,08,25,03,36,14.70
2016,08,25,03,37,14.70
2016,08,25,03,38,14.70
2016,08,25,03,39,14.70
2016,08,25,03,40,14.70
2016,08,25,03,41,14.70
2016,08,25,03,42,14.70
2016,08,25,03,43,14.70
2016,08,25,03,44,14.70
2016,08,25,03,45,14.70
2016,08,25,03,46,14.70
2016,08,25,03,47,14.70
2016,08,25,03,48,14.70
2016,08,25,03,49,14.70
2016,08,25,03,50,14.70
2016,08,25,03,51,14.70
2016,08,25,03,52,14.70
2016,08,25,03,53,14.60
2016,08,25,03,54,14.60
2016,08,25,03,55,14.60
2016,08,25,03,56,14.60
2016,08,25,03,57,14.60
2016,08,25,03,58,14.60
2016,08,25,03,59,14.60
2016,08,25,04,00,14.60
2016,08,25,04,01,14.60
2016,08,25,04,02,14.60
2016,08,25,04,03,14.50
2016,08,25,04,04,14.50
2016,08,25,04,05,14.50
2016,08,25,04,06,14.50
2016,08,25,04,07,14.50
2016,08,25,04,08,14.50
2016,08,25,04,09,14.50
2016,08,25,04,10,14.50
2016,08,25,04,11,14.50
2016,08,25,04,12,14.50
2016,08,25,04,13,14.50
2016,08,25,04,14,14.40
2016,08,25,04,15,14.40
2016,08,25,04,16,14.40
2016,08,25,04,17,14.40
2016,08,25,04,18,14.40
2016,08,25,04,19,14.40
2016,08,25,04,20,14.40
2016,08,25,04,21,14.40
2016,08,25,04,22,14.40
2016,08,25,04,23,14.40
2016,08,25,04,24,14.40
2016,08,25,04,25,14.40
2016,08,25,04,26,14.40
2016,08,25,04,27,14.40
2016,08,25,04,28,14.40
2016,08,25,04,29,14.40
2016,08,25,04,30,14.30
2016,08,25,04,31,14.30
2016,08,25,04,32,14.30
2016,08,25,04,33,14.30
2016,08,25,04,34,14.30
2016,08,25,04,35,14.30
2016,08,25,04,36,14.40
2016,08,25,04,37,14.40
2016,08,25,04,38,14.40
2016,08,25,04,39,14.40
2016,08,25,04,40,14.40
2016,08,25,04,41,14.40
2016,08,25,04,42,14.40
2016,08,25,04,43,14.40
2016,08,25,04,44,14.40
2016,08,25,04,45,14.40
2016,08,25,04,46,14.40
2016,08,25,04,47,14.40
2016,08,25,04,48,14.30
2016,08,25,04,49,14.30
2016,08,25,04,50,14.30
2016,08,25,04,51,14.30
2016,08,25,04,52,14.30
2016,08,25,04,53,14.30
2016,08,25,04,54,14.30
2016,08,25,04,55,14.30
2016,08,25,04,56,14.30
2016,08,25,04,57,14.30
2016,08,25,04,58,14.30
2016,08,25,04,59,14.30
2016,08,25,05,00,14.30
2016,08,25,05,01,14.30
2016,08,25,05,02,14.30
2016,08,25,05,03,14.30
2016,08,25,05,04,14.30
2016,08,25,05,05,14.30
2016,08,25,05,06,14.30
2016,08,25,05,07,14.30
2016,08,25,05,08,14.20
2016,08,25,05,09,14.20
2016,08,25,05,10,14.20
2016,08,25,05,11,14.20
2016,08,25,05,12,14.20
2016,08,25,05,13,14.20
2016,08,25,05,14,14.20
2016,08,25,05,15,14.20
2016,08,25,05,16,14.20
2016,08,25,05,17,14.20
2016,08,25,05,18,14.20
2016,08,25,05,19,14.20
2016,08,25,05,20,14.20
2016,08,25,05,21,14.20
2016,08,25,05,22,14.20
2016,08,25,05,23,14.20
2016,08,25,05,24,14.20
2016,08,25,05,25,14.20
2016,08,25,05,26,14.20
2016,08,25,05,27,14.20
2016,08,25,05,28,14.20
2016,08,25,05,29,14.20
2016,08,25,05,30,14.20
2016,08,25,05,31,14.20
2016,08,25,05,32,14.20
2016,08,25,05,33,14.20
2016,08,25,05,34,14.20
2016,08,25,05,35,14.20
2016,08,25,05,36,14.10
2016,08,25,05,37,14.10
2016,08,25,05,38,14.10
2016,08,25,05,39,14.10
2016,08,25,05,40,14.10
2016,08,25,05,41,14.10
2016,08,25,05,42,14.10
2016,08,25,05,43,14.10
2016,08,25,05,44,14.10
2016,08,25,05,45,14.10
2016,08,25,05,46,14.10
2016,08,25,05,47,14.10
2016,08,25,05,48,14.10
2016,08,25,05,49,14.10
2016,08,25,05,50,14.00
2016,08,25,05,51,14.00
2016,08,25,05,52,14.00
2016,08,25,05,53,14.00
2016,08,25,05,54,14.00
2016,08,25,05,55,13.90
2016,08,25,05,56,13.90
2016,08,25,05,57,13.90
2016,08,25,05,58,13.90
2016,08,25,05,59,13.90
2016,08,25,06,00,13.80
2016,08,25,06,01,13.80
2016,08,25,06,02,13.80
2016,08,25,06,03,13.80
2016,08,25,06,04,13.80
2016,08,25,06,05,13.80
2016,08,25,06,06,13.80
2016,08,25,06,07,13.80
2016,08,25,06,08,13.80
2016,08,25,06,09,13.80
2016,08,25,06,10,13.80
2016,08,25,06,11,13.80
2016,08,25,06,12,13.80
2016,08,25,06,13,13.80
2016,08,25,06,14,13.80
2016,08,25,06,15,13.80
2016,08,25,06,16,13.80
2016,08,25,06,17,13.80
2016,08,25,06,18,13.80
2016,08,25,06,19,13.80
2016,08,25,06,20,13.80
2016,08,25,06,21,13.80
2016,08,25,06,22,13.80
2016,08,25,06,23,13.80
2016,08,25,06,24,13.80
2016,08,25,06,25,13.80
2016,08,25,06,26,13.70
2016,08,25,06,27,13.70
2016,08,25,06,28,13.70
2016,08,25,06,29,13.70
2016,08,25,06,30,13.70
2016,08,25,06,31,13.70
2016,08,25,06,32,13.70
2016,08,25,06,33,13.70
2016,08,25,06,34,13.70
2016,08,25,06,35,13.70
2016,08,25,06,36,13.70
2016,08,25,06,37,13.70
2016,08,25,06,38,13.60
2016,08,25,06,39,13.60
2016,08,25,06,40,13.60
2016,08,25,06,41,13.60
2016,08,25,06,42,13.60
2016,08,25,06,43,13.50
2016,08,25,06,44,13.50
2016,08,25,06,45,13.50
2016,08,25,06,46,13.50
2016,08,25,06,47,13.50
2016,08,25,06,48,13.50
2016,08,25,06,49,13.50
2016,08,25,06,50,13.50
2016,08,25,06,51,13.50
2016,08,25,06,52,13.50
2016,08,25,06,53,13.50
2016,08,25,06,54,13.50
2016,08,25,06,55,13.60
2016,08,25,06,56,13.60
2016,08,25,06,57,13.60
2016,08,25,06,58,13.60
2016,08,25,06,59,13.60
2016,08,25,07,00,13.60
2016,08,25,07,01,13.60
2016,08,25,07,02,13.60
2016,08,25,07,03,13.60
2016,08,25,07,04,13.60
2016,08,25,07,05,13.60
2016,08,25,07,06,13.60
2016,08,25,07,07,13.60
2016,08,25,07,08,13.60
2016,08,25,07,09,13.60
2016,08,25,07,10,13.60
2016,08,25,07,11,13.60
2016,08,25,07,12,13.60
2016,08,25,07,13,13.60
2016,08,25,07,14,13.70
2016,08,25,07,15,13.70
2016,08,25,07,16,13.70
2016,08,25,07,17,13.70
2016,08,25,07,18,13.70
2016,08,25,07,19,13.70
2016,08,25,07,20,13.70
2016,08,25,07,21,13.60
2016,08,25,07,22,13.60
2016,08,25,07,23,13.60
2016,08,25,07,24,13.60
2016,08,25,07,25,13.60
2016,08,25,07,26,13.60
2016,08,25,07,27,13.60
2016,08,25,07,28,13.60
2016,08,25,07,29,13.60
2016,08,25,07,30,13.60
2016,08,25,07,31,13.70
2016,08,25,07,32,13.70
2016,08,25,07,33,13.70
2016,08,25,07,34,13.70
2016,08,25,07,35,13.70
2016,08,25,07,36,13.70
2016,08,25,07,37,13.70
2016,08,25,07,38,13.70
2016,08,25,07,39,13.70
2016,08,25,07,40,13.70
2016,08,25,07,41,13.70
2016,08,25,07,42,13.70
2016,08,25,07,43,13.70
2016,08,25,07,44,13.70
2016,08,25,07,45,13.80
2016,08,25,07,46,13.80
2016,08,25,07,47,13.80
2016,08,25,07,48,13.80
2016,08,25,07,49,13.80
2016,08,25,07,50,13.80
2016,08,25,07,51,13.80
2016,08,25,07,52,13.80
2016,08,25,07,53,13.80
2016,08,25,07,54,13.80
2016,08,25,07,55,13.80
2016,08,25,07,56,13.80
2016,08,25,07,57,13.80
2016,08,25,07,58,13.80
2016,08,25,07,59,13.80
2016,08,25,08,00,13.80
2016,08,25,08,01,13.80
2016,08,25,08,02,13.80
2016,08,25,08,03,13.80
2016,08,25,08,04,13.80
2016,08,25,08,05,13.80
2016,08,25,08,06,13.80
2016,08,25,08,07,13.80
2016,08,25,08,08,13.90
2016,08,25,08,09,13.90
2016,08,25,08,10,13.90
2016,08,25,08,11,13.90
2016,08,25,08,12,13.90
2016,08,25,08,13,13.90
2016,08,25,08,14,13.90
2016,08,25,08,15,13.90
2016,08,25,08,16,13.90
2016,08,25,08,17,13.90
2016,08,25,08,18,13.90
2016,08,25,08,19,14.00
2016,08,25,08,20,14.00
2016,08,25,08,21,14.00
2016,08,25,08,22,14.00
2016,08,25,08,23,14.00
2016,08,25,08,24,14.10
2016,08,25,08,25,14.10
2016,08,25,08,26,14.10
2016,08,25,08,27,14.10
2016,08,25,08,28,14.20
2016,08,25,08,29,14.20
2016,08,25,08,30,14.20
2016,08,25,08,31,14.20
2016,08,25,08,32,14.20
2016,08,25,08,33,14.30
2016,08,25,08,34,14.30
2016,08,25,08,35,14.30
2016,08,25,08,36,14.30
2016,08,25,08,37,14.30
2016,08,25,08,38,14.30
2016,08,25,08,39,14.30
2016,08,25,08,40,14.30
2016,08,25,08,41,14.30
2016,08,25,08,42,14.30
2016,08,25,08,43,14.30
2016,08,25,08,44,14.40
2016,08,25,08,45,14.40
2016,08,25,08,46,14.40
2016,08,25,08,47,14.40
2016,08,25,08,48,14.40
2016,08,25,08,49,14.40
2016,08,25,08,50,14.40
2016,08,25,08,51,14.40
2016,08,25,08,52,14.50
2016,08,25,08,53,14.50
2016,08,25,08,54,14.50
2016,08,25,08,55,14.60
2016,08,25,08,56,14.60
2016,08,25,08,57,14.60
2016,08,25,08,58,14.60
2016,08,25,08,59,14.60
2016,08,25,09,00,14.60
2016,08,25,09,01,14.60
2016,08,25,09,02,14.60
2016,08,25,09,03,14.60
2016,08,25,09,04,14.60
2016,08,25,09,05,14.60
2016,08,25,09,06,14.60
2016,08,25,09,07,14.60
2016,08,25,09,08,14.70
2016,08,25,09,09,14.70
2016,08,25,09,10,14.70
2016,08,25,09,11,14.70
2016,08,25,09,12,14.70
2016,08,25,09,13,14.70
2016,08,25,09,14,14.70
2016,08,25,09,15,14.70
2016,08,25,09,16,14.70
2016,08,25,09,17,14.70
2016,08,25,09,18,14.80
2016,08,25,09,19,14.80
2016,08,25,09,20,14.80
2016,08,25,09,21,14.80
2016,08,25,09,22,14.80
2016,08,25,09,23,14.90
2016,08,25,09,24,14.90
2016,08,25,09,25,14.90
2016,08,25,09,26,14.90
2016,08,25,09,27,14.90
2016,08,25,09,28,15.00
2016,08,25,09,29,15.00
2016,08,25,09,30,15.10
2016,08,25,09,31,15.10
2016,08,25,09,32,15.20
2016,08,25,09,33,15.30
2016,08,25,09,34,15.30
2016,08,25,09,35,15.40
2016,08,25,09,36,15.50
2016,08,25,09,37,15.60
2016,08,25,09,38,15.70
2016,08,25,09,39,15.70
2016,08,25,09,40,15.80
2016,08,25,09,41,15.90
2016,08,25,09,42,15.90
2016,08,25,09,43,16.00
2016,08,25,09,44,16.20
2016,08,25,09,45,16.30
2016,08,25,09,46,16.40
2016,08,25,09,47,16.40
2016,08,25,09,48,16.50
2016,08,25,09,49,16.60
2016,08,25,09,50,16.70
2016,08,25,09,51,16.70
2016,08,25,09,52,16.70
2016,08,25,09,53,16.80
2016,08,25,09,54,16.90
2016,08,25,09,55,17.00
2016,08,25,09,56,17.10
2016,08,25,09,57,17.10
2016,08,25,09,58,17.20
2016,08,25,09,59,17.30
2016,08,25,10,00,17.40
2016,08,25,10,01,17.50
2016,08,25,10,02,17.60
2016,08,25,10,03,17.70
2016,08,25,10,04,17.80
2016,08,25,10,05,17.90
2016,08,25,10,06,18.00
2016,08,25,10,07,18.10
2016,08,25,10,08,18.20
2016,08,25,10,09,18.30
2016,08,25,10,10,18.40
2016,08,25,10,11,18.50
2016,08,25,10,12,18.60
2016,08,25,10,13,18.70
2016,08,25,10,14,18.80
2016,08,25,10,15,18.90
2016,08,25,10,16,19.00
2016,08,25,10,17,19.10
2016,08,25,10,18,19.20
2016,08,25,10,19,19.40
2016,08,25,10,20,19.50
2016,08,25,10,21,19.60
2016,08,25,10,22,19.70
2016,08,25,10,23,19.90
2016,08,25,10,24,20.00
2016,08,25,10,25,20.10
2016,08,25,10,26,20.20
2016,08,25,10,27,20.30
2016,08,25,10,28,20.40
2016,08,25,10,29,20.50
2016,08,25,10,30,20.50
2016,08,25,10,31,20.60
2016,08,25,10,32,20.70
2016,08,25,10,33,20.80
2016,08,25,10,34,20.80
2016,08,25,10,35,20.90
2016,08,25,10,36,21.00
2016,08,25,10,37,21.10
2016,08,25,10,38,21.20
2016,08,25,10,39,21.30
2016,08,25,10,40,21.30
2016,08,25,10,41,21.40
2016,08,25,10,42,21.50
2016,08,25,10,43,21.60
2016,08,25,10,44,21.70
2016,08,25,10,45,21.80
2016,08,25,10,46,21.90
2016,08,25,10,47,22.00
2016,08,25,10,48,22.00
2016,08,25,10,49,22.10
2016,08,25,10,50,22.20
2016,08,25,10,51,22.30
2016,08,25,10,52,22.30
2016,08,25,10,53,22.40
2016,08,25,10,54,22.40
2016,08,25,10,55,22.50
2016,08,25,10,56,22.60
2016,08,25,10,57,22.70
2016,08,25,10,58,22.80
2016,08,25,10,59,22.90
2016,08,25,11,00,23.00
2016,08,25,11,01,23.10
2016,08,25,11,02,23.20
2016,08,25,11,03,23.30
2016,08,25,11,04,23.40
2016,08,25,11,05,23.40
2016,08,25,11,06,23.50
2016,08,25,11,07,23.50
2016,08,25,11,08,23.60
2016,08,25,11,09,23.70
2016,08,25,11,10,23.80
2016,08,25,11,11,23.90
2016,08,25,11,12,23.90
2016,08,25,11,13,24.00
2016,08,25,11,14,24.10
2016,08,25,11,15,24.20
2016,08,25,11,16,24.30
2016,08,25,11,17,24.30
2016,08,25,11,18,24.40
2016,08,25,11,19,24.50
2016,08,25,11,20,24.50
2016,08,25,11,21,24.50
2016,08,25,11,22,24.50
2016,08,25,11,23,24.50
2016,08,25,11,24,24.50
2016,08,25,11,25,24.50
2016,08,25,11,26,24.50
2016,08,25,11,27,24.40
2016,08,25,11,28,24.40
2016,08,25,11,29,24.40
2016,08,25,11,30,24.30
2016,08,25,11,31,24.30
2016,08,25,11,32,24.40
2016,08,25,11,33,24.50
2016,08,25,11,34,24.60
2016,08,25,11,35,24.70
2016,08,25,11,36,24.80
2016,08,25,11,37,24.90
2016,08,25,11,38,25.00
2016,08,25,11,39,25.10
2016,08,25,11,40,25.20
2016,08,25,11,41,25.20
2016,08,25,11,42,25.30
2016,08,25,11,43,25.30
2016,08,25,11,44,25.40
2016,08,25,11,45,25.40
2016,08,25,11,46,25.40
2016,08,25,11,47,25.40
2016,08,25,11,48,25.40
2016,08,25,11,49,25.30
2016,08,25,11,50,25.30
2016,08,25,11,51,25.30
2016,08,25,11,52,25.40
2016,08,25,11,53,25.50
2016,08,25,11,54,25.50
2016,08,25,11,55,25.60
2016,08,25,11,56,25.70
2016,08,25,11,57,25.80
2016,08,25,11,58,25.80
2016,08,25,11,59,25.90
2016,08,25,12,00,26.00
2016,08,25,12,01,26.00
2016,08,25,12,02,26.10
2016,08,25,12,03,26.20
2016,08,25,12,04,26.20
2016,08,25,12,05,26.20
2016,08,25,12,06,26.20
2016,08,25,12,07,26.10
2016,08,25,12,08,26.10
2016,08,25,12,09,26.20
2016,08,25,12,10,26.20
2016,08,25,12,11,26.30
2016,08,25,12,12,26.30
2016,08,25,12,13,26.40
2016,08,25,12,14,26.50
2016,08,25,12,15,26.50
2016,08,25,12,16,26.60
2016,08,25,12,17,26.60
2016,08,25,12,18,26.60
2016,08,25,12,19,26.60
2016,08,25,12,20,26.60
2016,08,25,12,21,26.70
2016,08,25,12,22,26.70
2016,08,25,12,23,26.80
2016,08,25,12,24,26.80
2016,08,25,12,25,26.80
2016,08,25,12,26,26.90
2016,08,25,12,27,26.90
2016,08,25,12,28,26.90
2016,08,25,12,29,26.90
2016,08,25,12,30,27.00
2016,08,25,12,31,27.00
2016,08,25,12,32,27.10
2016,08,25,12,33,27.10
2016,08,25,12,34,27.10
2016,08,25,12,35,27.20
2016,08,25,12,36,27.20
2016,08,25,12,37,27.20
2016,08,25,12,38,27.30
2016,08,25,12,39,27.40
2016,08,25,12,40,27.50
2016,08,25,12,41,27.60
2016,08,25,12,42,27.70
2016,08,25,12,43,27.80
2016,08,25,12,44,27.90
2016,08,25,12,45,28.00
2016,08,25,12,46,28.00
2016,08,25,12,47,28.00
2016,08,25,12,48,28.10
2016,08,25,12,49,28.10
2016,08,25,12,50,28.10
2016,08,25,12,51,28.10
2016,08,25,12,52,28.10
2016,08,25,12,53,28.10
2016,08,25,12,54,28.10
2016,08,25,12,55,28.20
2016,08,25,12,56,28.20
2016,08,25,12,57,28.30
2016,08,25,12,58,28.30
2016,08,25,12,59,28.30
2016,08,25,13,00,28.30
2016,08,25,13,01,28.20
2016,08,25,13,02,28.10
2016,08,25,13,03,28.00
2016,08,25,13,04,27.90
2016,08,25,13,05,27.80
2016,08,25,13,06,27.80
2016,08,25,13,07,27.80
2016,08,25,13,08,27.80
2016,08,25,13,09,27.90
2016,08,25,13,10,28.00
2016,08,25,13,11,28.10
2016,08,25,13,12,28.30
2016,08,25,13,13,28.40
2016,08,25,13,14,28.50
2016,08,25,13,15,28.60
2016,08,25,13,16,28.70
2016,08,25,13,17,28.80
2016,08,25,13,18,28.80
2016,08,25,13,19,28.80
2016,08,25,13,20,28.70
2016,08,25,13,21,28.70
2016,08,25,13,22,28.60
2016,08,25,13,23,28.60
2016,08,25,13,24,28.60
2016,08,25,13,25,28.60
2016,08,25,13,26,28.60
2016,08,25,13,27,28.60
2016,08,25,13,28,28.70
2016,08,25,13,29,28.70
2016,08,25,13,30,28.80
2016,08,25,13,31,28.90
2016,08,25,13,32,29.00
2016,08,25,13,33,29.00
2016,08,25,13,34,29.10
2016,08,25,13,35,29.10
2016,08,25,13,36,29.20
2016,08,25,13,37,29.30
2016,08,25,13,38,29.30
2016,08,25,13,39,29.40
2016,08,25,13,40,29.50
2016,08,25,13,41,29.60
2016,08,25,13,42,29.60
2016,08,25,13,43,29.70
2016,08,25,13,44,29.70
2016,08,25,13,45,29.80
2016,08,25,13,46,29.90
2016,08,25,13,47,30.00
2016,08,25,13,48,30.20
2016,08,25,13,49,30.30
2016,08,25,13,50,30.50
2016,08,25,13,51,30.70
2016,08,25,13,52,30.70
2016,08,25,13,53,30.80
2016,08,25,13,54,30.80
2016,08,25,13,55,30.90
2016,08,25,13,56,30.90
2016,08,25,13,57,30.90
2016,08,25,13,58,30.90
2016,08,25,13,59,30.90
2016,08,25,14,00,30.80
2016,08,25,14,01,30.80
2016,08,25,14,02,30.80
2016,08,25,14,03,30.80
2016,08,25,14,04,30.80
2016,08,25,14,05,30.80
2016,08,25,14,06,30.80
2016,08,25,14,07,30.90
2016,08,25,14,08,31.00
2016,08,25,14,09,31.10
2016,08,25,14,10,31.10
2016,08,25,14,11,31.20
2016,08,25,14,12,31.20
2016,08,25,14,13,31.20
2016,08,25,14,14,31.20
2016,08,25,14,15,31.10
2016,08,25,14,16,31.10
2016,08,25,14,17,31.10
2016,08,25,14,18,31.10
2016,08,25,14,19,31.10
2016,08,25,14,20,31.00
2016,08,25,14,21,31.00
2016,08,25,14,22,30.90
2016,08,25,14,23,30.90
2016,08,25,14,24,30.80
2016,08,25,14,25,30.80
2016,08,25,14,26,30.80
2016,08,25,14,27,30.80
2016,08,25,14,28,30.80
2016,08,25,14,29,30.70
2016,08,25,14,30,30.70
2016,08,25,14,31,30.60
2016,08,25,14,32,30.50
2016,08,25,14,33,30.50
2016,08,25,14,34,30.50
2016,08,25,14,35,30.50
2016,08,25,14,36,30.50
2016,08,25,14,37,30.60
2016,08,25,14,38,30.60
2016,08,25,14,39,30.70
2016,08,25,14,40,30.70
2016,08,25,14,41,30.70
2016,08,25,14,42,30.80
2016,08,25,14,43,30.80
2016,08,25,14,44,30.70
2016,08,25,14,45,30.70
2016,08,25,14,46,30.70
2016,08,25,14,47,30.60
2016,08,25,14,48,30.50
2016,08,25,14,49,30.40
2016,08,25,14,50,30.40
2016,08,25,14,51,30.30
2016,08,25,14,52,30.30
2016,08,25,14,53,30.20
2016,08,25,14,54,30.00
2016,08,25,14,55,29.90
2016,08,25,14,56,29.80
2016,08,25,14,57,29.70
2016,08,25,14,58,29.60
2016,08,25,14,59,29.60
2016,08,25,15,00,29.50
2016,08,25,15,01,29.60
2016,08,25,15,02,29.60
2016,08,25,15,03,29.60
2016,08,25,15,04,29.70
2016,08,25,15,05,29.80
2016,08,25,15,06,29.90
2016,08,25,15,07,30.10
2016,08,25,15,08,30.20
2016,08,25,15,09,30.40
2016,08,25,15,10,30.40
2016,08,25,15,11,30.50
2016,08,25,15,12,30.50
2016,08,25,15,13,30.50
2016,08,25,15,14,30.40
2016,08,25,15,15,30.40
2016,08,25,15,16,30.30
2016,08,25,15,17,30.20
2016,08,25,15,18,30.10
2016,08,25,15,19,30.00
2016,08,25,15,20,29.90
2016,08,25,15,21,29.90
2016,08,25,15,22,29.80
2016,08,25,15,23,29.80
2016,08,25,15,24,29.70
2016,08,25,15,25,29.70
2016,08,25,15,26,29.70
2016,08,25,15,27,29.80
2016,08,25,15,28,29.80
2016,08,25,15,29,29.90
2016,08,25,15,30,30.00
2016,08,25,15,31,30.00
2016,08,25,15,32,30.00
2016,08,25,15,33,30.00
2016,08,25,15,34,29.90
2016,08,25,15,35,29.80
2016,08,25,15,36,29.80
2016,08,25,15,37,29.70
2016,08,25,15,38,29.70
2016,08,25,15,39,29.60
2016,08,25,15,40,29.50
2016,08,25,15,41,29.50
2016,08,25,15,42,29.40
2016,08,25,15,43,29.50
2016,08,25,15,44,29.50
2016,08,25,15,45,29.60
2016,08,25,15,46,29.60
2016,08,25,15,47,29.50
2016,08,25,15,48,29.40
2016,08,25,15,49,29.20
2016,08,25,15,50,29.10
2016,08,25,15,51,29.00
2016,08,25,15,52,28.90
2016,08,25,15,53,28.80
2016,08,25,15,54,28.70
2016,08,25,15,55,28.70
2016,08,25,15,56,28.70
2016,08,25,15,57,28.70
2016,08,25,15,58,28.80
2016,08,25,15,59,28.80
2016,08,25,16,00,28.80
2016,08,25,16,01,28.70
2016,08,25,16,02,28.60
2016,08,25,16,03,28.50
2016,08,25,16,04,28.40
2016,08,25,16,05,28.30
2016,08,25,16,06,28.30
2016,08,25,16,07,28.20
2016,08,25,16,08,28.30
2016,08,25,16,09,28.30
2016,08,25,16,10,28.30
2016,08,25,16,11,28.30
2016,08,25,16,12,28.30
2016,08,25,16,13,28.30
2016,08,25,16,14,28.30
2016,08,25,16,15,28.40
2016,08,25,16,16,28.40
2016,08,25,16,17,28.40
2016,08,25,16,18,28.40
2016,08,25,16,19,28.40
2016,08,25,16,20,28.40
2016,08,25,16,21,28.50
2016,08,25,16,22,28.50
2016,08,25,16,23,28.60
2016,08,25,16,24,28.70
2016,08,25,16,25,28.80
2016,08,25,16,26,28.80
2016,08,25,16,27,28.90
2016,08,25,16,28,28.90
2016,08,25,16,29,28.90
2016,08,25,16,30,28.90
2016,08,25,16,31,28.90
2016,08,25,16,32,28.90
2016,08,25,16,33,28.90
2016,08,25,16,34,28.90
2016,08,25,16,35,28.90
2016,08,25,16,36,28.90
2016,08,25,16,37,28.90
2016,08,25,16,38,28.80
2016,08,25,16,39,28.80
2016,08,25,16,40,28.70
2016,08,25,16,41,28.70
2016,08,25,16,42,28.60
2016,08,25,16,43,28.60
2016,08,25,16,44,28.60
2016,08,25,16,45,28.60
2016,08,25,16,46,28.60
2016,08,25,16,47,28.60
2016,08,25,16,48,28.60
2016,08,25,16,49,28.70
2016,08,25,16,50,28.70
2016,08,25,16,51,28.70
2016,08,25,16,52,28.70
2016,08,25,16,53,28.60
2016,08,25,16,54,28.60
2016,08,25,16,55,28.60
2016,08,25,16,56,28.60
2016,08,25,16,57,28.50
2016,08,25,16,58,28.40
2016,08,25,16,59,28.20
2016,08,25,17,00,28.10
2016,08,25,17,01,28.00
2016,08,25,17,02,27.90
2016,08,25,17,03,27.90
2016,08,25,17,04,27.80
2016,08,25,17,05,27.90
2016,08,25,17,06,27.90
2016,08,25,17,07,28.00
2016,08,25,17,08,28.00
2016,08,25,17,09,28.10
2016,08,25,17,10,28.10
2016,08,25,17,11,28.10
2016,08,25,17,12,28.20
2016,08,25,17,13,28.20
2016,08,25,17,14,28.20
2016,08,25,17,15,28.30
2016,08,25,17,16,28.30
2016,08,25,17,17,28.30
2016,08,25,17,18,28.30
2016,08,25,17,19,28.30